Luverne, MN

7:31 PM CST on December 05, 2019 (GMT -0600)
Luverne

Weather History for KLYV - November, 2019

Change the Weather History Date:

Monday, November 11, 2019

  Actual Average (KPQN) Record (KPQN)
Temperature  
Mean Temperature 9 °F -  
Max Temperature 15 °F 42 °F 66 °F (2005)
Min Temperature 3 °F 24 °F 5 °F (1999)
Degree Days  
Heating Degree Days 56    
Moisture  
Dew Point 3 °F    
Average Humidity 68    
Maximum Humidity 85    
Minimum Humidity 53    
Precipitation  
Precipitation 0.00 in - - ()
Sea Level Pressure  
Sea Level Pressure 30.59 in    
Wind  
Wind Speed 13 mph (NNW)    
Max Wind Speed 21 mph    
Max Gust Speed 29 mph    
Visibility 10 miles    
Events Snow    
Averages and records for this station are not official NWS values.
T = Trace of Precipitation, MM = Missing Value Source: NWS Daily Summary

Daily Weather History Graph

Daily Weather History Graph

Search for Another Location

Airport or City:

Astronomy

Nov. 11, 2019 Rise Set
Actual Time 7:13 AM CST 5:03 PM CST
Civil Twilight 6:42 AM CST 5:34 PM CST
Nautical Twilight 6:08 AM CST 6:08 PM CST
Astronomical Twilight 5:34 AM CST 6:42 PM CST
Moon 5:02 PM CST (11/11) 6:02 AM CST (11/11)
Length of Visible Light 10h 51m
Length of Day
9h 50m
Waxing Gibbous, 99% of the Moon is Illuminated
Nov 11
Waxing Gibbous
Nov 12
Full
Nov 19
Last Quarter
Nov 26
New
Dec 4
First Quarter

Hourly Weather History & Observations

Time (CST) Temp. Windchill Dew Point Humidity Pressure Visibility Wind Dir Wind Speed Gust Speed Precip Events Conditions
12:17 AM 15.8 °F 2.1 °F 8.6 °F 73% 30.46 in 10.0 mi North 12.7 mph 19.6 mph N/A   Overcast
12:36 AM 15.8 °F 3.4 °F 6.8 °F 68% 30.46 in 10.0 mi North 10.4 mph 20.7 mph N/A   Overcast
12:56 AM 15.8 °F 2.7 °F 8.6 °F 73% 30.48 in 10.0 mi North 11.5 mph 19.6 mph N/A   Overcast
1:15 AM 15.8 °F 1.4 °F 8.6 °F 73% 30.48 in 10.0 mi North 13.8 mph 20.7 mph N/A   Overcast
1:37 AM 15.8 °F 0.9 °F 8.6 °F 73% 30.48 in 10.0 mi North 15.0 mph 20.7 mph N/A   Overcast
1:56 AM 15.8 °F 0.9 °F 8.6 °F 73% 30.50 in 10.0 mi North 15.0 mph 21.9 mph N/A   Overcast
2:17 AM 15.8 °F 0.9 °F 8.6 °F 73% 30.49 in 10.0 mi North 15.0 mph 21.9 mph N/A   Overcast
2:36 AM 15.8 °F 2.7 °F 8.6 °F 73% 30.51 in 10.0 mi North 11.5 mph 16.1 mph N/A   Overcast
2:56 AM 15.8 °F 4.2 °F 6.8 °F 68% 30.50 in 10.0 mi North 9.2 mph 20.7 mph N/A   Overcast
3:15 AM 15.8 °F 1.4 °F 6.8 °F 68% 30.51 in 10.0 mi North 13.8 mph 21.9 mph N/A   Overcast
3:20 AM 15.8 °F 2.7 °F 6.8 °F 68% 30.52 in 10.0 mi North 11.5 mph 21.9 mph N/A   Overcast
3:37 AM 15.8 °F 3.4 °F 8.6 °F 73% 30.52 in 10.0 mi North 10.4 mph - N/A   Overcast
3:55 AM 15.8 °F 0.9 °F 5.0 °F 62% 30.53 in 10.0 mi North 15.0 mph 23.0 mph N/A   Overcast
4:16 AM 14.0 °F -2.5 °F 5.0 °F 67% 30.54 in 10.0 mi North 17.3 mph 21.9 mph N/A   Overcast
4:35 AM 14.0 °F -3.0 °F 5.0 °F 67% 30.53 in 7.0 mi NNW 18.4 mph 24.2 mph N/A   Overcast
4:58 AM 14.0 °F -3.0 °F 5.0 °F 67% 30.55 in 10.0 mi NNW 18.4 mph 25.3 mph N/A   Overcast
5:17 AM 14.0 °F -3.4 °F 3.2 °F 62% 30.55 in 10.0 mi North 19.6 mph 27.6 mph N/A   Overcast
5:36 AM 12.2 °F -3.1 °F 3.2 °F 67% 30.56 in 10.0 mi North 13.8 mph 20.7 mph N/A   Overcast
5:56 AM 12.2 °F -2.5 °F 3.2 °F 67% 30.56 in 10.0 mi North 12.7 mph 18.4 mph N/A   Scattered Clouds
6:15 AM 12.2 °F 2.9 °F 3.2 °F 67% 30.57 in 10.0 mi North 5.8 mph - N/A   Clear
6:19 AM 10.4 °F -1.5 °F 3.2 °F 73% 30.57 in 10.0 mi North 8.1 mph - N/A   Clear
6:37 AM 10.4 °F -0.4 °F 3.2 °F 73% 30.57 in 10.0 mi North 6.9 mph - N/A   Clear
6:56 AM 10.4 °F -0.4 °F 1.4 °F 67% 30.58 in 10.0 mi North 6.9 mph - N/A   Clear
7:16 AM 10.4 °F 0.8 °F 1.4 °F 67% 30.58 in 10.0 mi North 5.8 mph - N/A   Clear
7:36 AM 10.4 °F 2.2 °F 3.2 °F 73% 30.59 in 10.0 mi NNW 4.6 mph - N/A   Mostly Cloudy
7:59 AM 12.2 °F 1.7 °F 3.2 °F 67% 30.60 in 10.0 mi NW 6.9 mph - N/A   Overcast
8:16 AM 12.2 °F -1.8 °F 3.2 °F 67% 30.61 in 10.0 mi NW 11.5 mph 18.4 mph N/A   Overcast
8:36 AM 10.4 °F -4.8 °F 5.0 °F 79% 30.62 in 7.0 mi NNW 12.7 mph 19.6 mph N/A Snow Light Snow
8:56 AM 12.2 °F -5.3 °F 3.2 °F 67% 30.62 in 10.0 mi NNW 18.4 mph 23.0 mph N/A   Mostly Cloudy
9:15 AM 12.2 °F -5.3 °F 1.4 °F 62% 30.63 in 10.0 mi NNW 18.4 mph 25.3 mph N/A   Clear
9:19 AM 10.4 °F -7.2 °F 1.4 °F 67% 30.63 in 10.0 mi NNW 17.3 mph 25.3 mph N/A   Clear
9:37 AM 10.4 °F -7.2 °F 1.4 °F 67% 30.63 in 7.0 mi NNW 17.3 mph 25.3 mph N/A   Mostly Cloudy
9:56 AM 12.2 °F -5.3 °F 1.4 °F 62% 30.63 in 10.0 mi North 18.4 mph 25.3 mph N/A   Mostly Cloudy
10:15 AM 10.4 °F -8.2 °F 1.4 °F 67% 30.63 in 10.0 mi NNW 19.6 mph 24.2 mph N/A   Mostly Cloudy
10:36 AM 10.4 °F -5.4 °F 1.4 °F 67% 30.63 in 7.0 mi NNW 13.8 mph 24.2 mph N/A   Overcast
10:59 AM 12.2 °F -4.8 °F 1.4 °F 62% 30.63 in 10.0 mi NNW 17.3 mph 24.2 mph N/A   Overcast
11:16 AM 12.2 °F -3.7 °F 1.4 °F 62% 30.63 in 7.0 mi NNW 15.0 mph 23.0 mph N/A   Overcast
11:36 AM 12.2 °F -6.3 °F 1.4 °F 62% 30.63 in 10.0 mi North 20.7 mph 24.2 mph N/A   Overcast
11:56 AM 12.2 °F -4.3 °F 1.4 °F 62% 30.62 in 10.0 mi North 16.1 mph 23.0 mph N/A   Mostly Cloudy
12:37 PM 14.0 °F -3.0 °F 1.4 °F 57% 30.61 in 10.0 mi NNW 18.4 mph 23.0 mph N/A   Scattered Clouds
12:55 PM 14.0 °F -1.4 °F 1.4 °F 57% 30.60 in 10.0 mi NNW 15.0 mph 24.2 mph N/A   Scattered Clouds
1:16 PM 14.0 °F -2.0 °F 1.4 °F 57% 30.60 in 10.0 mi NNW 16.1 mph 23.0 mph N/A   Clear
1:35 PM 15.8 °F -0.6 °F 1.4 °F 53% 30.60 in 10.0 mi NNW 18.4 mph 26.5 mph N/A   Scattered Clouds
1:58 PM 14.0 °F -3.0 °F 1.4 °F 57% 30.60 in 10.0 mi NNW 18.4 mph 25.3 mph N/A   Mostly Cloudy
2:16 PM 14.0 °F -3.0 °F 1.4 °F 57% 30.60 in 10.0 mi NW 18.4 mph 28.8 mph N/A   Mostly Cloudy
2:36 PM 15.8 °F -1.5 °F 1.4 °F 53% 30.59 in 10.0 mi NNW 20.7 mph 28.8 mph N/A   Mostly Cloudy
2:56 PM 14.0 °F -2.5 °F 1.4 °F 57% 30.60 in 10.0 mi NNW 17.3 mph 24.2 mph N/A   Mostly Cloudy
3:15 PM 14.0 °F -2.0 °F 1.4 °F 57% 30.60 in 10.0 mi NNW 16.1 mph 25.3 mph N/A   Scattered Clouds
3:20 PM 14.0 °F -2.5 °F 1.4 °F 57% 30.60 in 10.0 mi NNW 17.3 mph 24.2 mph N/A   Mostly Cloudy
3:37 PM 14.0 °F -2.5 °F 1.4 °F 57% 30.60 in 10.0 mi NW 17.3 mph 25.3 mph N/A   Mostly Cloudy
3:56 PM 14.0 °F -3.4 °F -0.4 °F 53% 30.60 in 10.0 mi NW 19.6 mph 24.2 mph N/A   Overcast
4:16 PM 14.0 °F -3.0 °F -0.4 °F 53% 30.61 in 10.0 mi NNW 18.4 mph 24.2 mph N/A   Overcast
4:36 PM 12.2 °F -3.7 °F -0.4 °F 57% 30.61 in 10.0 mi NNW 15.0 mph 24.2 mph N/A   Mostly Cloudy
4:58 PM 12.2 °F -3.7 °F -0.4 °F 57% 30.61 in 10.0 mi NW 15.0 mph 24.2 mph N/A   Overcast
5:15 PM 10.4 °F -3.3 °F 1.4 °F 67% 30.62 in 10.0 mi NNW 10.4 mph 19.6 mph N/A   Scattered Clouds
5:36 PM 10.4 °F -4.8 °F -0.4 °F 62% 30.62 in 10.0 mi NNW 12.7 mph 23.0 mph N/A   Clear
5:56 PM 10.4 °F -4.8 °F 1.4 °F 67% 30.62 in 10.0 mi NNW 12.7 mph 16.1 mph N/A   Clear
6:18 PM 10.4 °F -4.8 °F 1.4 °F 67% 30.63 in 10.0 mi NNW 12.7 mph 17.3 mph N/A   Clear
6:37 PM 10.4 °F -1.5 °F 1.4 °F 67% 30.63 in 10.0 mi NNW 8.1 mph - N/A   Clear
6:55 PM 8.6 °F -3.7 °F 1.4 °F 73% 30.63 in 10.0 mi NNW 8.1 mph - N/A   Clear
7:35 PM 8.6 °F -2.6 °F 1.4 °F 73% 30.64 in 10.0 mi NW 6.9 mph - N/A   Clear
7:40 PM 8.6 °F -2.6 °F 1.4 °F 73% 30.64 in 10.0 mi NNW 6.9 mph - N/A   Clear
7:58 PM 8.6 °F -1.3 °F 1.4 °F 73% 30.64 in 10.0 mi NW 5.8 mph - N/A   Clear
8:15 PM 8.6 °F -1.3 °F 1.4 °F 73% 30.64 in 10.0 mi NW 5.8 mph - N/A   Clear
8:36 PM 8.6 °F -1.3 °F -0.4 °F 67% 30.64 in 10.0 mi NW 5.8 mph - N/A   Clear
8:56 PM 6.8 °F -2.0 °F -0.4 °F 72% 30.63 in 10.0 mi NNW 4.6 mph - N/A   Clear
9:18 PM 5.0 °F -2.1 °F -0.4 °F 78% 30.64 in 10.0 mi NW 3.5 mph - N/A   Clear
9:36 PM 5.0 °F - -0.4 °F 78% 30.63 in 10.0 mi Calm Calm - N/A   Clear
9:56 PM 5.0 °F - -0.4 °F 78% 30.64 in 10.0 mi Calm Calm - N/A   Clear
10:16 PM 3.2 °F -6.2 °F -0.4 °F 85% 30.63 in 10.0 mi West 4.6 mph - N/A   Clear
10:35 PM 3.2 °F -6.2 °F -0.4 °F 85% 30.63 in 10.0 mi WNW 4.6 mph - N/A   Clear
10:39 PM 3.2 °F -6.2 °F -0.4 °F 85% 30.63 in 10.0 mi WNW 4.6 mph - N/A   Clear
10:58 PM 3.2 °F -6.2 °F -0.4 °F 85% 30.63 in 10.0 mi WNW 4.6 mph - N/A   Clear
11:16 PM 3.2 °F -6.2 °F -0.4 °F 85% 30.62 in 10.0 mi WNW 4.6 mph - N/A   Clear
11:36 PM 3.2 °F -6.2 °F -0.4 °F 85% 30.63 in 10.0 mi WNW 4.6 mph - N/A   Clear
11:56 PM 3.2 °F -6.2 °F -0.4 °F 85% 30.63 in 10.0 mi WNW 4.6 mph - N/A   Clear